STARLINK-34596, 64732

Orbit data source: Space-Track

STARLINK-34596, 64732 is a payload satellite owned by SpaceX/Seattle (US) in LEO that was launched on Wed, 02 Jul 2025 UTC via an FALCON 9 launch vehicle from the Air Force Eastern Test Range (AFETR). Payload-class satellites include a variety of spacecraft equipped with specific instruments for various scientific and technological missions. These include communications satellites like Starlink; space stations such as the ISS; scientific satellites like the Hubble; Earth observation satellites from companies like Planet Labs, Umbra, and HawkEye 360; GPS; miniature CubeSats for education and research; and military/defense satellites.

Loading next visibility...
Identifier
64732, 2025-144J
Orbit
LEO
Last TLE update
12 hours ago
Origin
Manufacturer
SpaceX/Seattle
Mission
Operational spacecraft
Bus & Motor
STARLINK V2MO, Unknown motor
Mass
575 kg wet, ~530 kg dry
Launch date (UTC)
2025-07-02 (1 week ago)
Launch vehicle
FALCON 9
Launch site
Air Force Eastern Test Range (AFETR)
Object type
Payload
Rocket body
Debris
Shape & HBR
Unknown
Radar Cross Section
RCS unknown

Expand to show TLE details & history

TLE from 12 hours ago
0 STARLINK-34596
1 64732U 25144J   25191.66668981 -.01142569  00000-0 -47038-2 0  9990
2 64732  53.1541 231.7499 0000851  69.7604  11.6011 15.87899135  2574
Epoch: 2025-07-10T16:00Z
TLE epoch observation values (Epoch: 2025-07-10T16:00:01.999Z)
Latitude
52.45054°
Longitude
138.68229°
Altitude
313.967 km
Speed
7.726 km/s
True Right ascension
20h 30m 04s
True Declination
52° 16' 23"
Sunlit
Object was in daylight at epoch
Visualization orbit readout
Latitude
43.18716°
Longitude
-164.05156°
Altitude
315.636 km
Speed
7.725 km/s
Apparent Right ascension
02h 25m 54s
Apparent Declination
3° 21' 05"
Sunlit
Object is in daylight
Visualization observer readout
Local Sidereal Time
16:32:20
Azimuth
41.552° NE
Elevation
-37.92°
Doppler factor
1
Orbital elements
Apogee altitude
309.007 km
Perigee altitude
307.868 km
Semi-major axis
6,686.575 km
Eccentricity
0.00009
Inclination
53.1541°
RAAN
231.7499°
Arg. of periapsis
69.7604°
True anomaly
Unknown
Mean anomaly
11.6011°
Eccentric anomaly
Unknown
Mean motion
3.96952 °/min
Orbital period
90.69 mins
BSTAR
-0.0047038
Loading maneuver chart data...
Loading SW <> Apogee altitude chart data...
Loading historical data...
Loading historical data...
Loading historical data...
Loading historical data...
Loading historical data...
Loading historical data...
Loading historical data...

STARLINK-34596 Visibility forecast

Observer location: undefined°, undefined°

Span
Click to sort rows by Start time (UTC) header in descending order
Start Az.
Max El. time (UTC)
Max El. Az.
Max El.
End time (UTC)
End Az.
4 mins2025-07-11 05:26:29.327Z224.949° SW2025-07-11 05:28:29.327Z206.641° SW41.175°2025-07-11 05:30:29.327Z54.049° ENE
|